• In Slovakia
  • List of Countries
  • For 7 days
  • Water Temperature
  • Satellite Maps
  • Weather Map
  • Weather Widgets
  • user-avatar
    Login

    Hourly Weather Sydney

    Today, 20 January, Saturday

    Time Temperature Precipitation Wind Pressure Humidity
    00:00 +21°C° 0 mm 1 mps 760 mmHg 66%
    01:00 +20°C° 0 mm 1 mps 760 mmHg 66%
    02:00 +20°C° 0 mm 1 mps 760 mmHg 65%
    03:00 +19°C° 0 mm 1 mps 760 mmHg 65%
    04:00 +19°C° 0 mm 1 mps 760 mmHg 66%
    05:00 +20°C° 0 mm 1 mps 760 mmHg 60%
    06:00 +21°C° 0 mm 2 mps 760 mmHg 53%
    07:00 +24°C° 0 mm 2 mps 760 mmHg 46%
    08:00 +27°C° 0 mm 2 mps 760 mmHg 36%
    09:00 +31°C° 0 mm 2 mps 760 mmHg 26%
    10:00 +36°C° 0 mm 2 mps 760 mmHg 16%
    11:00 +38°C° 0 mm 2 mps 759 mmHg 14%
    12:00 +39°C° 0 mm 3 mps 759 mmHg 13%
    13:00 +41°C° 0 mm 4 mps 759 mmHg 11%
    14:00 +40°C° 0 mm 4 mps 759 mmHg 14%
    15:00 +39°C° 0 mm 5 mps 758 mmHg 17%
    16:00 +35°C° 0 mm 5 mps 758 mmHg 27%
    17:00 +32°C° 0 mm 5 mps 759 mmHg 34%
    18:00 +29°C° 0 mm 4 mps 759 mmHg 41%
    19:00 +26°C° 0 mm 3 mps 759 mmHg 49%
    20:00 +25°C° 0 mm 3 mps 760 mmHg 56%
    21:00 +22°C° 0 mm 3 mps 760 mmHg 63%
    22:00 +21°C° 0 mm 3 mps 760 mmHg 70%
    23:00 +21°C° 0 mm 3 mps 760 mmHg 73%

    Tomorrow, 21 January, Sunday

    Time Temperature Precipitation Wind Pressure Humidity
    00:00 +20°C° 0 mm 3 mps 760 mmHg 76%
    01:00 +20°C° 0 mm 3 mps 760 mmHg 78%
    02:00 +19°C° 0 mm 2 mps 759 mmHg 79%
    03:00 +19°C° 0 mm 2 mps 759 mmHg 79%
    04:00 +19°C° 0 mm 2 mps 759 mmHg 79%
    05:00 +20°C° 0 mm 2 mps 759 mmHg 73%
    06:00 +23°C° 0 mm 2 mps 759 mmHg 66%
    07:00 +24°C° 0 mm 2 mps 759 mmHg 59%
    08:00 +27°C° 0 mm 3 mps 759 mmHg 49%
    09:00 +30°C° 0 mm 3 mps 759 mmHg 40%
    10:00 +35°C° 0 mm 3 mps 759 mmHg 30%
    11:00 +36°C° 0 mm 4 mps 758 mmHg 27%
    12:00 +38°C° 0 mm 4 mps 757 mmHg 24%
    13:00 +40°C° 0 mm 5 mps 757 mmHg 21%
    14:00 +40°C° 0 mm 6 mps 756 mmHg 24%
    15:00 +39°C° 0 mm 6 mps 756 mmHg 27%
    16:00 +38°C° 0 mm 7 mps 756 mmHg 30%
    17:00 +35°C° 0 mm 7 mps 756 mmHg 39%
    18:00 +32°C° 0 mm 7 mps 756 mmHg 48%
    19:00 +28°C° 0 mm 7 mps 756 mmHg 57%
    20:00 +27°C° 0 mm 7 mps 756 mmHg 62%
    21:00 +26°C° 0 mm 6 mps 757 mmHg 66%
    22:00 +24°C° 0 mm 6 mps 757 mmHg 70%
    23:00 +23°C° 0 mm 6 mps 757 mmHg 73%

    Day after tomorrow, 22 January, Monday

    Time Temperature Precipitation Wind Pressure Humidity
    00:00 +22°C° 0 mm 5 mps 756 mmHg 75%
    01:00 +22°C° 0 mm 5 mps 756 mmHg 78%
    02:00 +21°C° 0 mm 4 mps 756 mmHg 79%
    03:00 +21°C° 0 mm 4 mps 755 mmHg 80%
    04:00 +20°C° 0 mm 4 mps 755 mmHg 81%
    05:00 +22°C° 0 mm 4 mps 755 mmHg 73%
    06:00 +23°C° 0 mm 4 mps 756 mmHg 66%
    07:00 +26°C° 0 mm 4 mps 756 mmHg 59%
    08:00 +30°C° 0 mm 4 mps 756 mmHg 46%
    09:00 +36°C° 0 mm 4 mps 756 mmHg 33%
    10:00 +41°C° 0 mm 4 mps 756 mmHg 21%
    11:00 +43°C° 0 mm 5 mps 755 mmHg 18%
    12:00 +45°C° 0 mm 6 mps 755 mmHg 15%
    13:00 +47°C° 0 mm 7 mps 754 mmHg 12%
    14:00 +46°C° 0 mm 7 mps 754 mmHg 14%
    15:00 +44°C° 0 mm 7 mps 753 mmHg 17%
    16:00 +43°C° 0 mm 8 mps 753 mmHg 19%
    17:00 +40°C° 0 mm 7 mps 753 mmHg 25%
    18:00 +36°C° 0 mm 6 mps 754 mmHg 31%
    19:00 +33°C° 0 mm 6 mps 754 mmHg 37%
    20:00 +32°C° 0 mm 6 mps 755 mmHg 41%
    21:00 +30°C° 0 mm 6 mps 755 mmHg 44%
    22:00 +29°C° 0 mm 6 mps 756 mmHg 48%
    23:00 +28°C° 0 mm 5 mps 756 mmHg 53%

    23 January, Tuesday

    Time Temperature Precipitation Wind Pressure Humidity
    00:00 +27°C° 0 mm 5 mps 755 mmHg 57%
    01:00 +26°C° 0 mm 4 mps 755 mmHg 61%
    02:00 +25°C° 0 mm 4 mps 755 mmHg 65%
    03:00 +25°C° 0 mm 3 mps 755 mmHg 68%
    04:00 +24°C° 0 mm 3 mps 755 mmHg 72%
    05:00 +25°C° 0 mm 2 mps 756 mmHg 70%
    06:00 +26°C° 0 mm 2 mps 757 mmHg 68%
    07:00 +26°C° 0 mm 2 mps 757 mmHg 66%
    08:00 +29°C° 0 mm 2 mps 757 mmHg 56%
    09:00 +32°C° 0 mm 2 mps 757 mmHg 47%
    10:00 +36°C° 0 mm 2 mps 757 mmHg 37%
    11:00 +36°C° 0 mm 3 mps 757 mmHg 36%
    12:00 +37°C° 0 mm 4 mps 756 mmHg 34%
    13:00 +37°C° 0 mm 5 mps 756 mmHg 32%
    14:00 +37°C° 0 mm 5 mps 755 mmHg 34%
    15:00 +38°C° 0 mm 6 mps 755 mmHg 35%
    16:00 +36°C° 0 mm 6 mps 755 mmHg 36%
    17:00 +34°C° 0 mm 6 mps 755 mmHg 44%
    18:00 +32°C° 0 mm 6 mps 756 mmHg 52%
    19:00 +29°C° 0 mm 5 mps 756 mmHg 60%
    20:00 +28°C° 0 mm 5 mps 756 mmHg 65%
    21:00 +27°C° 0 mm 5 mps 757 mmHg 69%
    22:00 +27°C° 0 mm 5 mps 757 mmHg 73%
    23:00 +26°C° 0 mm 4 mps 757 mmHg 76%

    24 January, Wednesday

    Time Temperature Precipitation Wind Pressure Humidity
    00:00 +26°C° 0 mm 4 mps 757 mmHg 78%
    01:00 +25°C° 0 mm 3 mps 757 mmHg 81%
    02:00 +25°C° 0 mm 3 mps 757 mmHg 83%
    03:00 +25°C° 0 mm 2 mps 757 mmHg 86%
    04:00 +24°C° 0 mm 2 mps 757 mmHg 89%
    05:00 +25°C° 0 mm 2 mps 757 mmHg 85%
    06:00 +26°C° 0 mm 2 mps 758 mmHg 81%
    07:00 +27°C° 0 mm 2 mps 758 mmHg 77%
    08:00 +30°C° 0 mm 3 mps 758 mmHg 65%
    09:00 +33°C° 0 mm 3 mps 758 mmHg 54%
    10:00 +36°C° 0 mm 3 mps 758 mmHg 42%
    11:00 +37°C° 0 mm 4 mps 757 mmHg 39%
    12:00 +37°C° 0 mm 5 mps 757 mmHg 36%
    13:00 +39°C° 0 mm 5 mps 757 mmHg 32%
    14:00 +38°C° 0 mm 6 mps 756 mmHg 37%
    15:00 +36°C° 0 mm 6 mps 756 mmHg 42%
    16:00 +35°C° 0 mm 7 mps 756 mmHg 47%
    17:00 +33°C° 0 mm 7 mps 756 mmHg 57%
    18:00 +30°C° 0 mm 6 mps 756 mmHg 67%
    19:00 +28°C° 0 mm 6 mps 756 mmHg 77%
    20:00 +27°C° 0 mm 6 mps 757 mmHg 80%
    21:00 +27°C° 0 mm 6 mps 757 mmHg 83%
    22:00 +26°C° 0 mm 6 mps 757 mmHg 86%
    23:00 +26°C° 0 mm 5 mps 757 mmHg 87%

    25 January, Thursday

    Time Temperature Precipitation Wind Pressure Humidity
    00:00 +26°C° 0 mm 5 mps 757 mmHg 87%
    01:00 +26°C° 0 mm 4 mps 757 mmHg 87%
    02:00 +26°C° 0 mm 4 mps 757 mmHg 88%
    03:00 +25°C° 0 mm 3 mps 757 mmHg 88%
    04:00 +25°C° 0 mm 3 mps 757 mmHg 88%
    05:00 +26°C° 0 mm 3 mps 757 mmHg 86%
    06:00 +26°C° 0 mm 3 mps 758 mmHg 84%
    07:00 +27°C° 0 mm 3 mps 758 mmHg 81%
    08:00 +30°C° 0 mm 3 mps 758 mmHg 70%
    09:00 +33°C° 0 mm 3 mps 758 mmHg 59%
    10:00 +36°C° 0 mm 3 mps 758 mmHg 47%
    11:00 +37°C° 0 mm 4 mps 757 mmHg 44%
    12:00 +38°C° 0 mm 4 mps 756 mmHg 40%
    13:00 +40°C° 0 mm 5 mps 756 mmHg 37%
    14:00 +37°C° 1.4 mm 5 mps 756 mmHg 48%
    15:00 +34°C° 1.4 mm 6 mps 755 mmHg 59%
    16:00 +32°C° 1.4 mm 6 mps 755 mmHg 69%
    17:00 +30°C° 1.9 mm 5 mps 755 mmHg 75%
    18:00 +28°C° 1.9 mm 4 mps 756 mmHg 81%
    19:00 +27°C° 1.9 mm 3 mps 757 mmHg 87%
    20:00 +27°C° 0.3 mm 3 mps 757 mmHg 87%
    21:00 +27°C° 0.3 mm 3 mps 757 mmHg 88%
    22:00 +26°C° 0.3 mm 3 mps 758 mmHg 88%
    23:00 +26°C° 0.1 mm 3 mps 758 mmHg 89%
    Show more